Location: Baia Mare
(47.6567°N, 23.5850°E)
Time: 08:14:10
(UTC+03:00)

ISS - Pass Details

Date: 27 March 2018
Orbit: 402 x 408 km, 51.6° (Epoch: 20 July)

Event Time Altitude Azimuth Distance (km) Brightness Sun altitude
Rises 22:15:58 0° 265° (W) 2,353 0.8 -24.0°
Reaches altitude 10° 22:18:06 10° 272° (W) 1,493 -0.2 -24.3°
Enters shadow 22:20:23 35° 299° (WNW) 691 -2.2 -24.6°
